Weather in Kostenkovo

Russia / Kemerovo Oblast     53°38′07″N   86°49′37″E
temp.,
°C
wind,
m/s
gust,
m/s
humid.,
%
clouds,
%
prec.,
mm/h
press.,
hPa
HPBL,
m
10 may, mon
mon1001:00+4nne512653 0.0 1020410
04:00+3nne410791 0.0 1020265
07:00+3ne36764 0.0 1021197
10:00+9ene56522 0.0 1021944
13:00+13e68360 0.0 10191573
16:00+15ene67355 0.0 10171925
19:00+14ene684413 0.0 10161015
22:00+7ene496154 0.0 1016205
11 may, tue
tue1101:00+5nne4867100 0.0 1015180
04:00+4nne3969100 0.0 1014174
07:00+6nne3868100 0.0 1013253
10:00+11ne5748100 0.0 1012855
13:00+15ene4538100 0.0 10121597
16:00+16ene3434100 0.0 10112090
19:00+16ene344127 0.0 1011682
22:00+10nne37555 0.0 1013108
12 may, wed
wed1201:00+7nnw487120 0.0 1014144
04:00+6nnw47835 0.0 1014128
07:00+7n48848 0.0 1015246
10:00+14nne57525 0.0 1015862
13:00+17nne553591 0.0 10142716
16:00+17nne673499 0.0 10142510
19:00+15nne794727 0.0 10151157
22:00+10n37634 0.0 1018125
13 may, thu
thu1301:00+7nnw34712 0.0 101861
04:00+6nnw22753 0.0 101914
07:00+8nne12641 0.0 102064
10:00+14nne12433 0.0 10191008
13:00+17ne243444 0.0 10182269
16:00+19wsw453197 0.0 10162592
19:00+16w584053 0.0 1016741
22:00+11sw3657100 0.0 101694
14 may, fri
fri1401:00+12sw61355100 0.0 1014466
04:00+9w51086100 1.5 1013777
07:00+7w71187100 4.4 1013970
10:00+7wnw61191100 1.3 10131387
13:00+7nw8115125 2.7 10171680
16:00+9nw81140100 0.0 10182330
19:00+8nw61045100 0.0 10212121
22:00+5nw2649100 0.1 1024154